Location: Godiavel Galaoual
(15.2485°N, 12.6604°W)
Time: 12:10:06
(UTC+00:00)

Vanguard 3 - All Passes

Search period start: 13 June 2021 00:00
Search period end: 23 June 2021 00:00
Orbit: 508 x 3262 km, 33.3° (Epoch: 12 June)

Date Brightness Start Highest point End Pass type
(mag) Time Alt. Az. Time Alt. Az. Time Alt. Az.
13 Jun - 05:38:55 10° SSE 05:40:14 11° SSE 05:41:29 10° SE visible
13 Jun - 07:47:58 10° WSW 07:51:32 55° NNW 07:55:46 10° NE daylight
13 Jun - 10:01:21 10° NW 10:04:26 16° N 10:08:22 10° NE daylight
13 Jun - 12:13:24 10° NW 12:19:03 23° NNE 12:27:28 10° ENE daylight
13 Jun - 14:24:09 10° NW 14:33:52 54° NNE 14:50:17 10° ESE daylight
13 Jun - 16:36:09 10° WNW 16:49:28 72° SW 17:09:13 10° SE daylight
13 Jun - 18:52:29 10° W 19:06:37 30° SW 19:22:37 10° SSE daylight
14 Jun - 06:34:10 10° SW 06:37:57 47° SSE 06:41:33 10° ENE daylight
14 Jun - 08:46:46 10° WNW 08:49:42 20° NNW 08:53:17 10° NNE daylight
14 Jun - 11:00:08 10° NNW 11:03:40 16° N 11:08:19 10° NE daylight
14 Jun - 13:10:46 10° NW 13:18:12 35° NNE 13:30:26 10° E daylight
14 Jun - 15:21:43 10° NW 15:32:54 84° NNE 15:51:32 10° ESE daylight
14 Jun - 17:35:20 10° WNW 17:49:13 45° SW 18:07:33 10° SSE daylight
14 Jun - 19:57:46 10° WSW 20:07:17 15° SW 20:17:03 10° S visible
15 Jun - 05:21:02 10° SSW 05:24:09 18° SSE 05:26:50 10° ESE visible
15 Jun - 07:32:06 10° W 07:35:34 37° NNW 07:39:18 10° NE daylight
15 Jun - 09:46:25 10° NNW 09:48:33 13° N 09:51:03 10° NNE daylight
15 Jun - 11:57:42 10° NNW 12:02:53 22° NNE 12:10:30 10° ENE daylight
15 Jun - 14:08:00 10° NW 14:17:00 58° NNE 14:32:47 10° ESE daylight
15 Jun - 16:19:53 10° WNW 16:32:13 63° SW 16:51:11 10° SE daylight
15 Jun - 18:36:42 10° W 18:49:26 26° SW 19:04:16 10° SSE daylight
16 Jun - 06:17:43 10° SW 06:21:55 74° SSE 06:25:33 10° ENE daylight
16 Jun - 08:31:33 10° NW 08:33:47 15° NNW 08:36:18 10° NNE daylight
16 Jun - 10:44:52 10° NNW 10:47:43 14° NNE 10:51:15 10° NE daylight
16 Jun - 12:54:46 10° NW 13:01:42 37° NNE 13:13:18 10° E daylight
16 Jun - 15:05:32 10° WNW 15:15:50 88° SSW 15:33:41 10° SE daylight
16 Jun - 17:19:18 10° W 17:32:00 38° SSW 17:49:17 10° SSE daylight
16 Jun - 19:43:48 10° SW 19:50:31 13° SSW 19:57:29 10° S visible
17 Jun - 05:03:44 10° SSW 05:08:08 27° SSE 05:11:30 10° E visible
17 Jun - 07:16:18 10° W 07:19:34 27° NNW 07:22:51 10° NE daylight
17 Jun - 11:41:56 10° NNW 11:46:43 22° NNE 11:53:39 10° ENE daylight
17 Jun - 13:51:53 10° NW 14:00:13 64° NNE 14:15:15 10° ESE daylight
17 Jun - 16:03:47 10° WNW 16:15:06 55° SSW 16:33:01 10° SE daylight
17 Jun - 18:21:17 10° WSW 18:32:26 21° SSW 18:45:36 10° S daylight
18 Jun - 03:50:24 10° S 03:53:45 14° SSE 03:56:28 10° ESE visible
18 Jun - 06:01:19 10° WSW 06:05:52 76° NNW 06:09:31 10° NE daylight
18 Jun - 08:16:41 10° NNW 08:17:51 11° NNW 08:19:06 10° N daylight
18 Jun - 10:29:36 10° N 10:31:46 12° NNE 10:34:19 10° NE daylight
18 Jun - 12:38:46 10° NW 12:45:14 39° NNE 12:56:11 10° E daylight
18 Jun - 14:49:25 10° WNW 14:58:55 78° SSW 15:15:44 10° SE daylight
18 Jun - 17:03:30 10° W 17:14:59 32° SSW 17:30:48 10° SSE daylight
19 Jun - 04:46:36 10° SW 04:52:06 41° SSE 04:55:55 10° ENE visible
19 Jun - 07:00:32 10° WNW 07:03:33 21° NNW 07:06:25 10° NNE daylight
19 Jun - 11:26:05 10° NNW 11:30:32 22° NNE 11:36:56 10° ENE daylight
19 Jun - 13:35:49 10° NW 13:43:31 71° NNE 13:57:40 10° ESE daylight
19 Jun - 15:47:50 10° WNW 15:58:10 46° SSW 16:14:42 10° SE daylight
19 Jun - 18:06:23 10° WSW 18:15:39 17° SSW 18:26:31 10° S daylight
20 Jun - 03:32:12 10° SSW 03:37:45 22° SSE 03:41:40 10° ESE visible
20 Jun - 05:44:55 10° WSW 05:49:48 54° NNW 05:53:28 10° NE visible
20 Jun - 10:14:17 10° N 10:15:49 11° NNE 10:17:30 10° NE daylight
20 Jun - 12:22:46 10° NW 12:28:47 42° NNE 12:39:05 10° E daylight
20 Jun - 14:33:25 10° WNW 14:42:07 67° SSW 14:57:43 10° SE daylight
20 Jun - 16:47:59 10° W 16:58:10 26° SSW 17:12:05 10° SSE daylight
21 Jun - 02:18:29 10° S 02:22:44 14° SSE 02:26:07 10° SE night (unlit)
21 Jun - 04:29:31 10° SW 04:36:02 61° SSE 04:40:11 10° ENE visible
21 Jun - 06:44:49 10° WNW 06:47:31 17° NNW 06:49:59 10° NNE daylight
21 Jun - 11:10:11 10° NNW 11:14:21 22° NNE 11:20:19 10° ENE daylight
21 Jun - 13:19:49 10° NW 13:26:53 81° NNE 13:40:04 10° ESE daylight
21 Jun - 15:32:04 10° W 15:41:25 38° SSW 15:56:15 10° SSE daylight
21 Jun - 17:52:22 10° SW 17:59:04 14° SSW 18:06:41 10° S daylight
22 Jun - 03:14:21 10° SSW 03:21:42 32° SSE 03:26:23 10° E visible
22 Jun - 05:28:30 10° WSW 05:33:42 41° NNW 05:37:24 10° NE visible
22 Jun - 09:58:51 10° N 09:59:49 10° NNE 10:00:51 10° NNE daylight
22 Jun - 12:06:46 10° NW 12:12:21 46° NNE 12:22:01 10° ESE daylight
22 Jun - 14:17:32 10° WNW 14:25:29 56° SSW 14:39:37 10° SE daylight
22 Jun - 16:32:51 10° WSW 16:41:31 21° SSW 16:53:04 10° SSE daylight
